Time,TemperatureF,DewpointF,PressureIn,WindDirection,WindDirectionDegrees,WindSpeedMPH,WindSpeedGustMPH,Humidity,HourlyPrecipIn,Conditions,Clouds,dailyrainin,SoftwareType,DateUTC
2013-01-10 07:07:00,49.2,48.1,30.27,ESE,107,2.0,9.0,96,0.35,,---,0.35,VWS V13.01,2013-01-10 13:07:00,
2013-01-10 07:12:00,49.2,48.1,30.27,ESE,111,5.0,10.0,96,0.35,,---,0.35,VWS V13.01,2013-01-10 13:12:00,
2013-01-10 07:17:00,49.4,48.0,30.27,ESE,111,3.0,10.0,95,0.35,,---,0.35,VWS V13.01,2013-01-10 13:17:00,
2013-01-10 07:22:00,49.5,48.1,30.27,ESE,111,4.0,10.0,95,0.35,,---,0.35,VWS V13.01,2013-01-10 13:22:00,
2013-01-10 07:27:00,49.6,48.2,30.26,ESE,111,2.0,10.0,95,0.35,,---,0.35,VWS V13.01,2013-01-10 13:27:00,
2013-01-10 07:30:00,49.7,48.6,30.26,ESE,110,3.0,10.0,96,0.35,,---,0.35,VWS V13.01,2013-01-10 13:30:00,
2013-01-10 07:35:00,49.8,48.7,30.26,ESE,111,9.0,9.0,96,0.35,,---,0.35,VWS V13.01,2013-01-10 13:35:00,
2013-01-10 07:40:00,50.0,48.9,30.26,ESE,122,2.0,11.0,96,0.35,,---,0.35,VWS V13.01,2013-01-10 13:40:00,
2013-01-10 07:45:00,50.2,49.1,30.26,SE,127,6.0,13.0,96,0.35,,---,0.35,VWS V13.01,2013-01-10 13:45:00,
2013-01-10 07:50:00,50.4,49.3,30.26,SE,127,5.0,13.0,96,0.35,,---,0.35,VWS V13.01,2013-01-10 13:50:00,
2013-01-10 07:55:00,50.5,49.4,30.27,SE,128,5.0,13.0,96,0.35,,---,0.35,VWS V13.01,2013-01-10 13:55:00,
2013-01-10 08:00:00,50.6,49.5,30.27,SE,128,5.0,13.0,96,0.35,,---,0.35,VWS V13.01,2013-01-10 14:00:00,
2013-01-10 08:05:00,50.8,49.7,30.27,SE,128,10.0,10.0,96,0.35,,---,0.35,VWS V13.01,2013-01-10 14:05:00,
2013-01-10 08:10:00,51.0,49.9,30.26,SE,127,7.0,10.0,96,0.35,,---,0.35,VWS V13.01,2013-01-10 14:10:00,
2013-01-10 08:15:00,51.2,50.1,30.27,SE,130,4.0,10.0,96,0.35,,---,0.35,VWS V13.01,2013-01-10 14:15:00,
2013-01-10 08:20:00,51.4,50.3,30.27,SE,132,3.0,12.0,96,0.35,,---,0.35,VWS V13.01,2013-01-10 14:20:00,
2013-01-10 08:25:00,51.5,50.4,30.27,SE,130,6.0,12.0,96,0.36,,---,0.36,VWS V13.01,2013-01-10 14:25:00,
2013-01-10 08:30:00,51.6,50.5,30.26,SE,129,6.0,12.0,96,0.37,,---,0.37,VWS V13.01,2013-01-10 14:30:00,
2013-01-10 08:35:00,51.8,50.7,30.26,SE,129,4.0,11.0,96,0.02,,---,0.37,VWS V13.01,2013-01-10 14:35:00,
2013-01-10 08:40:00,52.0,50.9,30.27,SE,134,6.0,11.0,96,0.02,,---,0.37,VWS V13.01,2013-01-10 14:40:00,
2013-01-10 08:45:00,52.2,51.1,30.27,SE,134,4.0,11.0,96,0.02,,---,0.37,VWS V13.01,2013-01-10 14:45:00,
2013-01-10 08:50:00,52.3,51.2,30.26,SE,133,4.0,11.0,96,0.02,,---,0.37,VWS V13.01,2013-01-10 14:50:00,
2013-01-10 08:55:00,52.4,51.3,30.26,SE,132,4.0,11.0,96,0.02,,---,0.37,VWS V13.01,2013-01-10 14:55:00,
2013-01-10 09:00:00,52.6,51.5,30.26,SE,132,5.0,11.0,96,0.02,,---,0.37,VWS V13.01,2013-01-10 15:00:00,
2013-01-10 09:05:00,52.7,51.6,30.26,SE,132,3.0,9.0,96,0.02,,---,0.37,VWS V13.01,2013-01-10 15:05:00,
2013-01-10 09:10:00,52.8,51.7,30.26,SE,132,3.0,9.0,96,0.02,,---,0.37,VWS V13.01,2013-01-10 15:10:00,
2013-01-10 09:15:00,52.9,51.8,30.26,SE,132,4.0,9.0,96,0.02,,---,0.37,VWS V13.01,2013-01-10 15:15:00,
2013-01-10 09:20:00,53.2,52.1,30.26,SE,134,5.0,12.0,96,0.02,,---,0.37,VWS V13.01,2013-01-10 15:20:00,
2013-01-10 09:25:00,53.3,52.2,30.25,SE,136,3.0,12.0,96,0.02,,---,0.37,VWS V13.01,2013-01-10 15:25:00,
2013-01-10 09:30:00,53.4,52.3,30.25,SE,140,6.0,12.0,96,0.02,,---,0.37,VWS V13.01,2013-01-10 15:30:00,
2013-01-10 09:35:00,53.5,52.4,30.25,SE,140,4.0,9.0,96,0.01,,---,0.39,VWS V13.01,2013-01-10 15:35:00,
2013-01-10 09:40:00,53.6,52.5,30.25,SE,140,8.0,9.0,96,0.02,,---,0.39,VWS V13.01,2013-01-10 15:40:00,
2013-01-10 09:45:00,53.9,52.8,30.25,SE,138,6.0,10.0,96,0.02,,---,0.39,VWS V13.01,2013-01-10 15:45:00,
2013-01-10 09:50:00,54.0,52.9,30.24,SE,140,5.0,10.0,96,0.02,,---,0.39,VWS V13.01,2013-01-10 15:50:00,
2013-01-10 09:55:00,54.2,53.1,30.24,SE,138,5.0,10.0,96,0.02,,---,0.39,VWS V13.01,2013-01-10 15:55:00,
2013-01-10 10:00:00,54.3,53.2,30.24,SE,140,5.0,10.0,96,0.02,,---,0.39,VWS V13.01,2013-01-10 16:00:00,
2013-01-10 10:05:00,54.4,53.3,30.24,SE,140,4.0,9.0,96,0.02,,---,0.39,VWS V13.01,2013-01-10 16:05:00,
2013-01-10 10:10:00,54.5,53.4,30.24,SE,140,5.0,9.0,96,0.02,,---,0.39,VWS V13.01,2013-01-10 16:10:00,
2013-01-10 10:15:00,54.6,53.5,30.24,SE,141,7.0,10.0,96,0.02,,---,0.39,VWS V13.01,2013-01-10 16:15:00,
2013-01-10 10:20:00,54.8,53.7,30.23,SE,141,7.0,10.0,96,0.02,,---,0.39,VWS V13.01,2013-01-10 16:20:00,
2013-01-10 10:25:00,54.9,53.8,30.23,SE,141,4.0,10.0,96,0.02,,---,0.39,VWS V13.01,2013-01-10 16:25:00,
2013-01-10 10:32:00,55.1,54.0,30.23,SE,142,5.0,6.0,96,0.02,,---,0.39,VWS V13.01,2013-01-10 16:32:00,
2013-01-10 10:37:00,55.3,54.2,30.23,SE,142,4.0,6.0,96,0.02,,---,0.39,VWS V13.01,2013-01-10 16:37:00,
2013-01-10 10:42:00,55.5,54.4,30.22,SE,142,5.0,6.0,96,0.02,,---,0.39,VWS V13.01,2013-01-10 16:42:00,
2013-01-10 10:47:00,55.7,54.6,30.22,SE,142,7.0,10.0,96,0.02,,---,0.39,VWS V13.01,2013-01-10 16:47:00,
2013-01-10 10:52:00,55.8,54.7,30.21,SE,141,4.0,10.0,96,0.02,,---,0.39,VWS V13.01,2013-01-10 16:52:00,
2013-01-10 10:57:00,56.0,54.9,30.21,SE,141,5.0,11.0,96,0.02,,---,0.39,VWS V13.01,2013-01-10 16:57:00,
2013-01-10 11:02:00,56.3,55.2,30.20,SSE,154,4.0,11.0,96,0.00,,---,0.39,VWS V13.01,2013-01-10 17:02:00,
2013-01-10 11:07:00,56.6,55.5,30.19,SSE,155,5.0,12.0,96,0.00,,---,0.39,VWS V13.01,2013-01-10 17:07:00,
2013-01-10 11:12:00,56.7,55.6,30.19,SSE,155,5.0,12.0,96,0.00,,---,0.39,VWS V13.01,2013-01-10 17:12:00,
2013-01-10 11:17:00,56.9,55.8,30.19,SSE,155,7.0,12.0,96,0.00,,---,0.39,VWS V13.01,2013-01-10 17:17:00,
2013-01-10 11:22:00,57.1,56.0,30.18,SSE,155,3.0,12.0,96,0.00,,---,0.39,VWS V13.01,2013-01-10 17:22:00,
2013-01-10 11:27:00,57.3,56.2,30.18,SSE,155,6.0,12.0,96,0.00,,---,0.39,VWS V13.01,2013-01-10 17:27:00,
2013-01-10 11:32:00,57.5,56.4,30.18,SSE,156,4.0,5.0,96,0.00,,---,0.39,VWS V13.01,2013-01-10 17:32:00,
2013-01-10 11:37:00,57.6,56.5,30.17,SSE,156,4.0,7.0,96,0.00,,---,0.39,VWS V13.01,2013-01-10 17:37:00,
2013-01-10 11:42:00,57.7,56.6,30.17,SSE,155,6.0,7.0,96,0.00,,---,0.39,VWS V13.01,2013-01-10 17:42:00,
2013-01-10 11:47:00,57.8,56.7,30.17,SSE,155,5.0,7.0,96,0.00,,---,0.39,VWS V13.01,2013-01-10 17:47:00,
2013-01-10 11:52:00,57.9,56.8,30.16,SSE,155,5.0,7.0,96,0.00,,---,0.39,VWS V13.01,2013-01-10 17:52:00,
2013-01-10 11:57:00,58.0,56.9,30.16,SSE,155,5.0,9.0,96,0.00,,---,0.39,VWS V13.01,2013-01-10 17:57:00,
2013-01-10 12:02:00,58.2,57.1,30.16,SSE,157,5.0,7.0,96,0.00,,---,0.39,VWS V13.01,2013-01-10 18:02:00,
2013-01-10 12:07:00,58.4,57.3,30.16,SSE,157,4.0,8.0,96,0.01,,---,0.40,VWS V13.01,2013-01-10 18:07:00,
2013-01-10 12:12:00,58.7,57.6,30.15,SSE,157,7.0,11.0,96,0.01,,---,0.40,VWS V13.01,2013-01-10 18:12:00,
2013-01-10 12:17:00,59.0,57.9,30.15,SSE,157,6.0,11.0,96,0.01,,---,0.40,VWS V13.01,2013-01-10 18:17:00,
2013-01-10 12:22:00,59.1,58.0,30.15,SSE,167,4.0,14.0,96,0.01,,---,0.40,VWS V13.01,2013-01-10 18:22:00,
2013-01-10 12:27:00,59.5,58.4,30.15,SSE,167,10.0,14.0,96,0.01,,---,0.40,VWS V13.01,2013-01-10 18:27:00,
2013-01-10 12:32:00,59.8,58.7,30.15,SSE,167,5.0,9.0,96,0.01,,---,0.40,VWS V13.01,2013-01-10 18:32:00,
2013-01-10 12:37:00,60.1,59.0,30.14,SSE,168,6.0,11.0,96,0.01,,---,0.40,VWS V13.01,2013-01-10 18:37:00,
2013-01-10 12:42:00,60.4,59.3,30.14,South,172,6.0,13.0,96,0.01,,---,0.40,VWS V13.01,2013-01-10 18:42:00,
2013-01-10 12:47:00,60.7,59.6,30.14,South,173,6.0,13.0,96,0.01,,---,0.40,VWS V13.01,2013-01-10 18:47:00,
2013-01-10 12:52:00,60.9,59.8,30.14,South,175,5.0,13.0,96,0.01,,---,0.40,VWS V13.01,2013-01-10 18:52:00,
2013-01-10 12:57:00,61.1,60.0,30.14,South,185,5.0,15.0,96,0.01,,---,0.40,VWS V13.01,2013-01-10 18:57:00,
2013-01-10 13:01:00,61.3,60.2,30.14,South,178,5.0,8.0,96,0.02,,---,0.41,VWS V13.01,2013-01-10 19:01:00,
2013-01-10 13:06:00,61.3,59.9,30.14,South,178,10.0,10.0,95,0.02,,---,0.41,VWS V13.01,2013-01-10 19:06:00,
2013-01-10 13:11:00,61.4,60.0,30.14,South,180,9.0,12.0,95,0.02,,---,0.41,VWS V13.01,2013-01-10 19:11:00,
2013-01-10 13:16:00,61.4,60.0,30.13,South,181,4.0,12.0,95,0.02,,---,0.41,VWS V13.01,2013-01-10 19:16:00,
2013-01-10 13:21:00,61.4,60.0,30.14,South,175,5.0,12.0,95,0.02,,---,0.41,VWS V13.01,2013-01-10 19:21:00,
2013-01-10 13:26:00,61.4,60.0,30.13,SSE,164,7.0,13.0,95,0.02,,---,0.41,VWS V13.01,2013-01-10 19:26:00,
2013-01-10 13:31:00,61.4,60.0,30.13,SSE,168,6.0,6.0,95,0.02,,---,0.42,VWS V13.01,2013-01-10 19:31:00,
2013-01-10 13:36:00,61.4,60.0,30.12,South,169,7.0,11.0,95,0.02,,---,0.42,VWS V13.01,2013-01-10 19:36:00,
2013-01-10 13:41:00,61.4,60.0,30.13,SSE,165,3.0,14.0,95,0.02,,---,0.42,VWS V13.01,2013-01-10 19:41:00,
2013-01-10 13:46:00,61.4,60.0,30.12,SSE,168,6.0,14.0,95,0.02,,---,0.42,VWS V13.01,2013-01-10 19:46:00,
2013-01-10 13:51:00,61.5,60.1,30.12,SSE,168,5.0,14.0,95,0.02,,---,0.42,VWS V13.01,2013-01-10 19:51:00,
2013-01-10 13:56:00,61.5,60.1,30.12,SSE,167,9.0,14.0,95,0.02,,---,0.42,VWS V13.01,2013-01-10 19:56:00,
2013-01-10 14:01:00,61.6,60.2,30.12,South,169,6.0,7.0,95,0.01,,---,0.42,VWS V13.01,2013-01-10 20:01:00,
2013-01-10 14:06:00,61.6,60.2,30.12,SSE,163,4.0,13.0,95,0.02,,---,0.43,VWS V13.01,2013-01-10 20:06:00,
2013-01-10 14:11:00,61.7,60.3,30.12,SSE,166,7.0,13.0,95,0.02,,---,0.43,VWS V13.01,2013-01-10 20:11:00,
2013-01-10 14:16:00,61.7,60.3,30.12,SSE,165,6.0,13.0,95,0.02,,---,0.43,VWS V13.01,2013-01-10 20:16:00,
2013-01-10 14:21:00,61.8,60.4,30.11,SSE,160,6.0,13.0,95,0.02,,---,0.43,VWS V13.01,2013-01-10 20:21:00,
2013-01-10 14:26:00,61.9,60.5,30.10,SSE,161,7.0,13.0,95,0.02,,---,0.43,VWS V13.01,2013-01-10 20:26:00,
2013-01-10 14:31:00,62.0,60.6,30.10,SSE,153,7.0,12.0,95,0.01,,---,0.43,VWS V13.01,2013-01-10 20:31:00,
2013-01-10 14:36:00,62.1,60.7,30.10,SSE,160,5.0,12.0,95,0.01,,---,0.43,VWS V13.01,2013-01-10 20:36:00,
2013-01-10 14:41:00,62.2,60.8,30.10,SSE,163,5.0,12.0,95,0.01,,---,0.43,VWS V13.01,2013-01-10 20:41:00,
2013-01-10 14:46:00,62.2,60.8,30.10,SSE,163,4.0,12.0,95,0.01,,---,0.43,VWS V13.01,2013-01-10 20:46:00,
2013-01-10 14:51:00,62.3,60.8,30.09,SSE,161,10.0,12.0,95,0.01,,---,0.43,VWS V13.01,2013-01-10 20:51:00,
2013-01-10 14:56:00,62.3,60.8,30.08,SSE,158,3.0,13.0,95,0.01,,---,0.43,VWS V13.01,2013-01-10 20:56:00,
2013-01-10 15:01:00,62.2,60.8,30.08,SSE,157,6.0,8.0,95,0.01,,---,0.43,VWS V13.01,2013-01-10 21:01:00,
2013-01-10 15:06:00,62.2,60.8,30.08,SSE,157,8.0,12.0,95,0.01,,---,0.43,VWS V13.01,2013-01-10 21:06:00,
2013-01-10 15:11:00,62.2,60.8,30.07,SSE,158,13.0,13.0,95,0.01,,---,0.43,VWS V13.01,2013-01-10 21:11:00,
2013-01-10 15:16:00,62.3,60.8,30.06,SSE,155,7.0,13.0,95,0.01,,---,0.43,VWS V13.01,2013-01-10 21:16:00,
2013-01-10 15:21:00,62.4,61.0,30.06,SSE,157,11.0,13.0,95,0.01,,---,0.43,VWS V13.01,2013-01-10 21:21:00,
2013-01-10 15:26:00,62.5,60.8,30.06,South,169,12.0,16.0,94,0.01,,---,0.43,VWS V13.01,2013-01-10 21:26:00,
2013-01-10 15:31:00,62.6,60.8,30.06,SSE,164,5.0,11.0,94,0.01,,---,0.43,VWS V13.01,2013-01-10 21:31:00,
2013-01-10 15:36:00,62.7,61.0,30.06,SSE,162,5.0,11.0,94,0.00,,---,0.43,VWS V13.01,2013-01-10 21:36:00,
2013-01-10 15:41:00,62.8,61.0,30.05,SE,146,10.0,14.0,94,0.00,,---,0.43,VWS V13.01,2013-01-10 21:41:00,
2013-01-10 15:46:00,63.0,61.2,30.05,SSE,165,12.0,14.0,94,0.00,,---,0.43,VWS V13.01,2013-01-10 21:46:00,
2013-01-10 15:51:00,63.1,61.3,30.04,SSE,160,11.0,16.0,94,0.00,,---,0.43,VWS V13.01,2013-01-10 21:51:00,
2013-01-10 15:56:00,63.2,61.2,30.04,South,171,6.0,16.0,93,0.00,,---,0.43,VWS V13.01,2013-01-10 21:56:00,
2013-01-10 16:01:00,63.4,61.3,30.03,SSE,165,6.0,18.0,93,0.00,,---,0.43,VWS V13.01,2013-01-10 22:01:00,
2013-01-10 16:06:00,63.4,61.3,30.03,SSE,152,5.0,18.0,93,0.00,,---,0.43,VWS V13.01,2013-01-10 22:06:00,
2013-01-10 16:11:00,63.5,61.4,30.03,SSE,160,6.0,18.0,93,0.00,,---,0.43,VWS V13.01,2013-01-10 22:11:00,
2013-01-10 16:16:00,63.6,61.5,30.03,South,185,6.0,18.0,93,0.00,,---,0.43,VWS V13.01,2013-01-10 22:16:00,
2013-01-10 16:21:00,63.6,61.5,30.03,South,173,4.0,18.0,93,0.00,,---,0.43,VWS V13.01,2013-01-10 22:21:00,
2013-01-10 16:26:00,63.7,61.3,30.02,South,181,9.0,18.0,92,0.00,,---,0.43,VWS V13.01,2013-01-10 22:26:00,
2013-01-10 16:31:00,63.8,61.4,30.02,South,188,6.0,13.0,92,0.00,,---,0.43,VWS V13.01,2013-01-10 22:31:00,
2013-01-10 16:36:00,64.0,61.6,30.02,South,176,9.0,13.0,92,0.00,,---,0.43,VWS V13.01,2013-01-10 22:36:00,
2013-01-10 16:41:00,63.9,61.5,30.01,SSW,192,4.0,14.0,92,0.00,,---,0.43,VWS V13.01,2013-01-10 22:41:00,
2013-01-10 16:46:00,64.0,61.6,30.01,South,180,10.0,15.0,92,0.00,,---,0.43,VWS V13.01,2013-01-10 22:46:00,
2013-01-10 16:51:00,64.0,61.3,30.01,SSW,194,9.0,15.0,91,0.00,,---,0.43,VWS V13.01,2013-01-10 22:51:00,
2013-01-10 16:56:00,64.0,61.3,30.01,SSE,152,5.0,15.0,91,0.00,,---,0.43,VWS V13.01,2013-01-10 22:56:00,
2013-01-10 17:01:00,64.0,61.3,30.01,South,171,6.0,13.0,91,0.00,,---,0.43,VWS V13.01,2013-01-10 23:01:00,
2013-01-10 17:06:00,63.9,61.2,30.00,SSW,198,4.0,13.0,91,0.00,,---,0.43,VWS V13.01,2013-01-10 23:06:00,
2013-01-10 17:11:00,63.8,61.4,30.00,SSW,194,4.0,13.0,92,0.00,,---,0.43,VWS V13.01,2013-01-10 23:11:00,
2013-01-10 17:16:00,63.9,61.2,29.99,SSW,193,6.0,16.0,91,0.00,,---,0.43,VWS V13.01,2013-01-10 23:16:00,
2013-01-10 17:21:00,63.9,61.2,29.99,South,190,5.0,16.0,91,0.00,,---,0.43,VWS V13.01,2013-01-10 23:21:00,
2013-01-10 17:26:00,64.0,61.3,29.99,South,175,9.0,18.0,91,0.00,,---,0.43,VWS V13.01,2013-01-10 23:26:00,
2013-01-10 17:31:00,64.2,61.5,29.98,South,183,15.0,20.0,91,0.00,,---,0.43,VWS V13.01,2013-01-10 23:31:00,
2013-01-10 17:36:00,64.4,61.4,29.97,SW,215,14.0,20.0,90,0.00,,---,0.43,VWS V13.01,2013-01-10 23:36:00,
2013-01-10 17:41:00,64.5,61.5,29.97,South,184,14.0,20.0,90,0.00,,---,0.43,VWS V13.01,2013-01-10 23:41:00,
2013-01-10 17:46:00,64.5,61.5,29.97,South,181,8.0,20.0,90,0.00,,---,0.43,VWS V13.01,2013-01-10 23:46:00,
2013-01-10 17:51:00,64.5,61.5,29.96,South,171,5.0,20.0,90,0.00,,---,0.43,VWS V13.01,2013-01-10 23:51:00,
2013-01-10 17:56:00,64.5,61.5,29.96,SSW,198,13.0,20.0,90,0.00,,---,0.43,VWS V13.01,2013-01-10 23:56:00,
2013-01-10 18:01:00,64.7,61.7,29.96,South,180,16.0,17.0,90,0.00,,---,0.43,VWS V13.01,2013-01-11 00:01:00,
2013-01-10 18:06:00,64.8,61.8,29.95,South,173,7.0,18.0,90,0.00,,---,0.43,VWS V13.01,2013-01-11 00:06:00,
2013-01-10 18:11:00,64.8,61.8,29.95,South,184,9.0,20.0,90,0.00,,---,0.43,VWS V13.01,2013-01-11 00:11:00,
2013-01-10 18:16:00,64.8,61.8,29.95,South,180,12.0,20.0,90,0.00,,---,0.43,VWS V13.01,2013-01-11 00:16:00,
2013-01-10 18:21:00,64.7,61.7,29.95,SSE,163,10.0,20.0,90,0.00,,---,0.43,VWS V13.01,2013-01-11 00:21:00,
2013-01-10 18:26:00,64.7,61.7,29.94,SSW,210,11.0,20.0,90,0.00,,---,0.43,VWS V13.01,2013-01-11 00:26:00,
2013-01-10 18:31:00,64.8,61.8,29.94,South,180,9.0,16.0,90,0.00,,---,0.43,VWS V13.01,2013-01-11 00:31:00,
2013-01-10 18:36:00,64.8,61.8,29.94,South,188,6.0,19.0,90,0.00,,---,0.43,VWS V13.01,2013-01-11 00:36:00,
2013-01-10 18:41:00,64.8,61.8,29.94,South,173,19.0,19.0,90,0.00,,---,0.43,VWS V13.01,2013-01-11 00:41:00,
2013-01-10 18:46:00,65.0,62.0,29.94,SSE,157,6.0,19.0,90,0.00,,---,0.43,VWS V13.01,2013-01-11 00:46:00,
2013-01-10 18:51:00,65.0,61.7,29.93,SSE,168,9.0,22.0,89,0.00,,---,0.43,VWS V13.01,2013-01-11 00:51:00,
2013-01-10 18:56:00,65.0,61.7,29.93,South,188,11.0,22.0,89,0.00,,---,0.43,VWS V13.01,2013-01-11 00:56:00,
2013-01-10 19:01:00,65.0,61.7,29.93,SSE,156,9.0,15.0,89,0.00,,---,0.43,VWS V13.01,2013-01-11 01:01:00,